Hobart, OK

12:01 PM CST on December 07, 2016 (GMT -0600)
Hobart Municipal

Weather History for KHBR - March, 2014

Change the Weather History Date:

Friday, March 7, 2014

  Actual Average Record
Temperature  
Mean Temperature 56 °F -  
Max Temperature 73 °F 56 °F 81 °F (2006)
Min Temperature 39 °F 31 °F 17 °F (2008)
Degree Days  
Heating Degree Days 9    
Growing Degree Days 6 (Base 50)    
Moisture  
Dew Point 37 °F    
Average Humidity 58    
Maximum Humidity 86    
Minimum Humidity 27    
Precipitation  
Precipitation 0.00 in - - ()
Sea Level Pressure  
Sea Level Pressure 29.78 in    
Wind  
Wind Speed - (North)    
Max Wind Speed -    
Max Gust Speed -    
Visibility 9 miles    
Events      
Averages and records for this station are not official NWS values.
T = Trace of Precipitation, MM = Missing Value Source: NWS Daily Summary

Daily Weather History Graph

Daily Weather History Graph

Search for Another Location

Airport or City:

Trip Planner

Search our weather history database for the weather conditions in past years. The results will help you decide how hot, cold, wet, or windy it might be!

Date:

Astronomy

Mar. 07, 2014 Rise Set
Actual Time 6:57 AM CST 6:37 PM CST
Civil Twilight 6:32 AM CST 7:02 PM CST
Nautical Twilight 6:03 AM CST 7:31 PM CST
Astronomical Twilight 5:33 AM CST 8:01 PM CST
Moon 11:05 AM CST 12:29 AM CST
Length of Visible Light 12h 30m
Length of Day
11h 39m
Waxing Crescent, 42% of the Moon is Illuminated
Mar 7
Waxing Crescent
Mar 8
First Quarter
Mar 16
Full
Mar 23
Last Quarter
Mar 30
New

Hourly Weather History & Observations

Time (CST) Temp. Dew Point Humidity Pressure Visibility Wind Dir Wind Speed Gust Speed Precip Events Conditions
12:53 AM 41.0 °F 35.1 °F 79% 29.93 in 9.0 mi North - - N/A   Clear
1:53 AM 39.0 °F 35.1 °F 86% 29.91 in 8.0 mi North - - N/A   Clear
2:53 AM 39.9 °F 34.0 °F 79% 29.88 in 8.0 mi North - - N/A   Clear
3:53 AM 39.9 °F 34.0 °F 79% 29.87 in 8.0 mi North - - N/A   Clear
4:53 AM 39.0 °F 34.0 °F 82% 29.86 in 8.0 mi North - - N/A   Clear
5:53 AM 39.9 °F 34.0 °F 79% 29.84 in 9.0 mi North - - N/A   Clear
6:53 AM 39.9 °F 34.0 °F 79% 29.83 in 8.0 mi North - - N/A   Clear
7:53 AM 41.0 °F 35.1 °F 79% 29.82 in 7.0 mi North - - N/A   Clear
8:53 AM 44.1 °F 36.0 °F 73% 29.81 in 8.0 mi North - - N/A   Partly Cloudy
9:53 AM 48.0 °F 37.0 °F 66% 29.80 in 10.0 mi North - - N/A   Clear
10:53 AM 54.0 °F 39.0 °F 57% 29.77 in - North - - N/A   Clear
11:53 AM 61.0 °F 37.9 °F 42% 29.75 in 10.0 mi North - - N/A   Clear
12:53 PM 66.0 °F 37.0 °F 34% 29.73 in 10.0 mi North - - N/A   Clear
1:53 PM 70.0 °F 37.9 °F 31% 29.69 in 10.0 mi North - - N/A   Clear
2:53 PM 72.0 °F 37.9 °F 29% 29.65 in 10.0 mi North - - N/A   Clear
3:53 PM 73.9 °F 37.9 °F 27% 29.64 in 10.0 mi North - - N/A   Clear
4:53 PM 73.0 °F 37.9 °F 28% 29.63 in 10.0 mi North - - N/A   Clear
5:53 PM 70.0 °F 37.9 °F 31% 29.63 in 10.0 mi North - - N/A   Clear
6:53 PM 66.0 °F 37.0 °F 34% 29.67 in 10.0 mi North - - N/A   Clear
7:53 PM 62.1 °F 39.0 °F 43% 29.74 in 10.0 mi North - - N/A   Clear
8:53 PM 59.0 °F 39.9 °F 49% 29.77 in 10.0 mi North - - N/A   Clear
9:53 PM 53.1 °F 39.9 °F 61% 29.81 in 10.0 mi North - - N/A   Clear
10:53 PM 50.0 °F 39.9 °F 68% 29.84 in 10.0 mi North - - N/A   Clear
11:53 PM 44.1 °F 37.0 °F 76% 29.86 in 7.0 mi North - - N/A   Clear